Content
SEND FEEDBACK

Daily
Averages
Monthly
Summary
Philippines

MANILA, PHILIPPINES


Home > Asia > Philippines
Elevation: 49 feet     Latitude: 14 31N     Longitude: 121 00E

WEATHER
 
SELECT A DAY
Number of Records: 172,693;   Date Range: 7/1/96 - 9/3/14
 
SHARE

PRINT THIS DATA

[ ← Previous Day ]
WEATHER ALMANAC - FEBRUARY 14, 2013
[ Next Day → ]
[ °C ]   °F
Weather ElementAverageHighLow
Temperature82.7 °F89.6 °F (11:00 am)76 °F (2:00 am)
Dewpoint69.4 °F73.4 °F (10:00 pm)66.2 °F (10:00 am)
Humidity63.1 %79 % (2:00 am)38 % (11:00 am)
Barometer29.89 in29.95 in (9:00 am)29.80 in (4:00 pm)
Wind Speed7.9 mph15 mph (2:00 pm)
Weather ElementAverage
Visibility6.1 mi
Wind DirectionE (93.5 °)

Weather ElementTotal
Precipitation---
Cooling Degree Days17.8 (Base 65)
Growing Degree Days32.8 (Base 50)
Averaged from 31 records on February 14, 2013
WEATHER CONDITIONS BREAKOUT
WIND DIRECTION BREAKOUT
WEATHER BY HOUR - FEBRUARY 14, 2013
[ °C ]   °F
Local TimeTemperatureDewpointHumidityBarometerVisibilityWind DirectionWind SpeedGust SpeedPrecipitationEventsConditions
1:00 AM80.6 °F71.6 °F74 %29.89 in6.2 miESE (110°)9.2 mphPartly Cloudy
2:00 AM76.0 °F71.0 °F79 %29.90 in6.0 miENE (70°)6.7 mphHaze
2:00 AM77.0 °F69.8 °F78 %29.89 in6.2 miENE (70°)5.8 mphMostly Cloudy
3:00 AM78.8 °F69.8 °F74 %29.86 in6.2 miENE (70°)8.1 mphMostly Cloudy
4:00 AM77.0 °F69.8 °F78 %29.86 in6.2 miCalmScattered Clouds
5:00 AM77.0 °F69.0 °F71 %29.89 in6.0 miENE (70°)6.7 mphHaze
5:00 AM77.0 °F69.8 °F78 %29.89 in6.2 miENE (70°)6.9 mphScattered Clouds
6:00 AM77.0 °F69.8 °F78 %29.92 in6.2 miESE (110°)3.5 mphPartly Cloudy
7:00 AM77.0 °F69.8 °F78 %29.92 in6.2 miESE (110°)3.5 mphPartly Cloudy
8:00 AM82.0 °F67.0 °F51 %29.94 in6.0 miNE (50°)4.5 mphHaze
8:00 AM82.4 °F68.0 °F62 %29.92 in6.2 miNE (40°)4.6 mphPartly Cloudy
9:00 AM84.2 °F68.0 °F58 %29.95 in6.2 miEast (90°)8.1 mphPartly Cloudy
10:00 AM86.0 °F66.2 °F51 %29.92 in6.2 miENE (60°)8.1 mphScattered Clouds
11:00 AM89.0 °F67.0 °F38 %29.92 in6.0 miEast (90°)13.4 mphHaze
11:00 AM89.6 °F68.0 °F49 %29.89 in6.2 miEast (90°)12.7 mphPartly Cloudy
12:00 PM89.6 °F66.2 °F46 %29.89 in6.2 miEast (90°)11.5 mphPartly Cloudy
1:00 PM87.8 °F68.0 °F52 %29.86 in6.2 miEast (80°)10.4 mphPartly Cloudy
2:00 PM89.0 °F71.0 °F47 %29.86 in6.0 miESE (110°)13.4 mphPartly Cloudy
2:00 PM87.8 °F71.6 °F58 %29.83 in6.2 miESE (120°)15.0 mphScattered Clouds
3:00 PM87.8 °F69.8 °F55 %29.83 in6.2 miESE (110°)12.7 mphPartly Cloudy
4:00 PM87.8 °F68.0 °F52 %29.80 in6.2 miEast (80°)13.8 mphPartly Cloudy
5:00 PM87.0 °F67.0 °F41 %29.83 in6.0 miEast (100°)11.2 mphScattered Clouds
5:00 PM86.0 °F66.2 °F51 %29.83 in6.2 miEast (100°)11.5 mphScattered Clouds
6:00 PM84.2 °F68.0 °F58 %29.86 in6.2 miEast (100°)9.2 mphScattered Clouds
7:00 PM84.2 °F69.8 °F62 %29.89 in6.2 miESE (110°)9.2 mphMostly Cloudy
8:00 PM81.0 °F72.0 °F67 %29.91 in6.0 miCalm (120°)Haze
8:00 PM80.6 °F71.6 °F74 %29.89 in6.2 miESE (120°)6.9 mphMostly Cloudy
9:00 PM80.6 °F71.6 °F74 %29.92 in6.2 miEast (100°)6.9 mphScattered Clouds
10:00 PM80.6 °F73.4 °F79 %29.92 in6.2 miESE (120°)4.6 mphPartly Cloudy
11:00 PM80.0 °F72.0 °F70 %29.91 in6.0 miSouth (170°)4.5 mphHaze
11:00 PM80.6 °F71.6 °F74 %29.89 in6.2 miSouth (170°)3.5 mphMostly Cloudy
Hourly data recorded from RPLL, located miles away from Manila, Philippines







STORIES FROM OUR PARTNERS